Vorticity
5 9 3 6 -1 12 -6 6 8 -4 8 15 13 -23 25 23 4 3 7 6 4 8 5 5 3 2 5 4 -3 12 5 5 6 6 8 9 6 7 10 6 10 6 3 6 1 5 13
21 -9 5 2 -1 2 -2 19 -8 16 -23 3 19 25 -11 12 3 1 5 5 3 10 8 5 5 6 4 2 1 7 7 6 9 15 7 1 5 7 8 17 12 7 11 11 14 12 10
-6 5 18 9 -0 3 13 2 11 5 4 7 6 16 12 1 1 5 1 4 2 3 3 2 5 1 1 8 2 8 14 15 18 -3 -5 8 5 12 8 13 17 14 10 13 31 42 10
1 -6 7 12 10 13 9 1 9 9 8 4 5 15 16 -0 3 12 -2 8 5 1 3 3 4 5 -2 1 20 16 6 -3 -3 9 5 7 6 9 14 11 11 8 16 14 14 12 -1
1 22 18 10 11 10 10 10 10 7 17 6 15 4 7 17 -1 -4 10 15 8 6 5 6 5 8 22 12 12 6 -5 3 4 -3 7 6 9 10 11 11 11 27 5 13 -2 -20 3
-3 12 10 9 8 8 8 8 7 8 13 14 -4 12 6 6 4 6 2 10 3 17 -1 2 2 24 26 -6 -5 8 3 1 3 1 7 11 11 7 14 13 -1 -11 -4 8 13 -3 -22
8 7 11 9 10 10 10 9 10 9 7 11 4 4 -6 26 -6 -1 9 -16 2 0 -4 9 -14 3 5 9 8 3 5 1 3 5 10 17 13 -2 21 8 2 1 4 6 2 2 17
10 16 12 9 9 10 9 9 8 8 7 7 8 8 6 -24 2 4 18 12 7 -7 12 -11 -14 3 12 12 3 -5 7 10 7 8 11 9 2 18 5 5 6 11 -0 8 7 4 -9
10 9 9 9 9 9 10 10 11 11 11 11 10 8 11 12 14 -9 -14 -1 6 7 10 5 9 17 22 18 13 24 23 13 8 8 13 11 -14 8 -14 6 7 2 -11 3 20 18 7
8 9 9 9 9 9 9 9 9 10 10 11 12 13 13 11 11 11 15 8 9 5 16 36 53 30 19 26 16 20 17 12 8 13 14 30 31 12 22 18 5 2 4 10 7 7 20
8 9 8 8 8 9 9 8 9 8 10 10 14 15 14 14 12 14 8 16 13 14 16 15 10 7 5 8 -3 4 11 9 15 8 5 -25 -9 -8 -5 2 11 26 8 14 11 4 8
11 11 11 10 11 12 12 12 11 12 11 12 11 10 10 11 12 11 15 18 10 21 14 8 -0 1 14 18 8 7 16 19 2 7 15 20 22 25 23 16 8 -3 5 -1 4 27 42
10 10 10 10 10 10 10 9 10 9 9 10 9 10 10 9 10 6 8 12 9 -1 13 23 17 4 1 -1 4 22 13 5 -1 14 1 0 2 6 -2 31 28 -14 -2 23 21 18 5
8 7 9 8 7 7 7 7 7 7 7 8 9 8 7 10 12 9 14 16 1 25 -0 -6 -8 -13 14 10 2 18 12 10 6 -0 7 26 22 1 3 17 11 37 -1 -13 11 9 -21
7 6 7 7 7 6 7 7 8 9 8 9 8 9 9 10 9 11 16 1 3 15 2 15 10 11 4 10 16 8 20 13 15 22 5 -4 7 13 -28 1 33 15 8 38 28 3 27
7 9 8 8 9 9 7 7 6 6 7 6 7 7 7 7 10 12 7 -26 4 -4 3 15 14 6 -7 -7 7 16 15 1 11 4 33 -5 26 38 23 1 11 11 -3 3 2 8 9
9 8 9 8 7 9 9 9 8 8 6 8 8 8 8 7 10 11 -4 -24 8 1 2 8 10 2 -5 3 -1 -9 14 10 4 5 16 7 17 9 -4 14 24 16 -1 17 28 4 4
13 13 9 9 8 8 8 8 8 9 9 8 8 8 11 8 10 -1 -2 3 3 -1 14 14 14 14 5 17 14 -5 -5 -7 -13 -0 -1 -4 -13 -10 -26 27 24 -11 25 26 -9 14 6
11 15 11 11 9 9 9 7 8 8 9 10 9 10 4 10 6 1 2 5 4 1 5 12 -2 19 27 26 -1 24 24 14 11 7 -9 1 22 30 6 6 35 28 29 2 28 15 9
7 3 11 16 16 10 7 7 8 8 9 14 11 8 16 3 2 10 8 4 4 3 7 10 6 3 -2 3 10 -12 -5 12 17 10 18 26 32 -24 -29 -22 -24 -7 -18 -8 -2 16 8
16 8 14 15 11 10 15 9 8 10 16 15 12 10 -2 -4 5 1 4 4 6 10 10 9 23 21 18 5 16 6 22 10 2 3 18 20 2 -5 -9 -11 -2 7 13 9 1 8 -9
18 14 14 6 9 17 16 14 10 12 18 5 10 -1 13 6 3 14 19 8 7 4 5 7 10 20 26 6 -6 9 -12 17 25 7 3 17 -3 -9 -4 19 14 19 21 22 19 17 -3
7 5 11 6 15 10 12 14 14 18 13 -0 5 13 -8 31 4 2 0 4 9 12 12 19 12 7 19 23 11 4 -3 11 1 4 22 14 18 24 24 25 10 41 37 39 18 13 11
9 14 15 16 2 9 3 17 13 25 7 9 1 12 8 6 8 7 8 8 9 9 19 17 12 18 8 0 10 20 20 6 3 13 3 -2 6 20 -11 7 23 19 14 3 15 18 15
19 19 10 17 14 8 5 6 11 21 12 4 8 10 3 -5 -4 4 8 9 17 19 10 16 26 3 -8 18 32 16 15 12 2 7 -13 22 14 -6 -4 26 -12 -7 4 9 16 10 17
10 14 16 22 6 5 15 7 8 6 19 1 12 -3 7 12 -3 -2 -1 16 10 9 3 -1 39 12 -3 8 20 3 -12 -1 26 19 56 3 7 -1 3 3 5 2 21 18 13 0 6
18 10 17 15 21 12 10 10 9 8 37 6 1 -1 30 13 6 4 22 0 -22 3 4 -2 15 20 1 23 1 4 -3 12 12 6 13 29 18 6 6 -2 13 18 2 11 11 -11 9
13 9 16 17 24 -3 -1 7 8 11 26 20 6 13 -32 11 11 16 -14 -9 25 10 -15 14 6 10 13 -9 3 12 13 10 2 -15 14 10 7 22 23 3 25 24 13 -0 5 0 11
11 13 13 11 19 13 10 8 10 8 16 17 12 13 6 -17 -24 43 7 47 -6 15 9 -2 6 -15 -3 24 30 21 2 21 -4 -3 24 33 -17 -0 3 31 -5 -5 22 20 -3 8 13
Height
3130 3131 3132 3135 3136 3137 3139 3140 3142 3143 3144 3145 3144 3146 3144 3143 3145 3146 3146 3146 3144 3144 3142 3142 3141 3142 3142 3142 3143 3142 3140 3138 3137 3136 3134 3133 3133 3133 3132 3130 3128 3127 3126 3125 3124 3124 3125
3118 3122 3125 3127 3126 3130 3132 3134 3135 3136 3138 3140 3140 3139 3140 3140 3141 3142 3142 3142 3141 3141 3139 3138 3138 3139 3139 3140 3140 3139 3138 3136 3135 3134 3134 3131 3130 3130 3127 3128 3126 3123 3122 3122 3121 3121 3120
3112 3114 3114 3118 3120 3123 3125 3126 3128 3130 3131 3133 3134 3133 3134 3133 3134 3136 3138 3139 3139 3138 3136 3135 3135 3135 3136 3136 3135 3135 3135 3134 3133 3133 3132 3129 3127 3126 3124 3124 3122 3120 3118 3117 3117 3117 3117
3103 3105 3107 3110 3112 3114 3116 3120 3121 3122 3124 3126 3128 3127 3129 3129 3130 3131 3133 3135 3135 3134 3132 3132 3130 3131 3132 3131 3131 3130 3131 3131 3130 3130 3129 3125 3124 3122 3119 3120 3119 3118 3117 3116 3115 3115 3117
3092 3096 3099 3103 3104 3107 3109 3112 3114 3115 3117 3119 3121 3122 3123 3124 3125 3127 3128 3129 3130 3129 3128 3128 3126 3127 3128 3128 3128 3127 3127 3128 3127 3125 3124 3121 3120 3119 3116 3116 3116 3115 3116 3116 3115 3114 3114
3085 3087 3090 3093 3095 3098 3102 3103 3105 3108 3110 3112 3115 3116 3118 3119 3120 3121 3123 3124 3124 3124 3125 3124 3121 3126 3123 3125 3122 3124 3124 3123 3124 3123 3123 3119 3115 3116 3115 3112 3113 3112 3113 3113 3112 3112 3112
3072 3077 3080 3083 3086 3088 3091 3094 3097 3100 3102 3104 3107 3110 3112 3114 3114 3116 3118 3120 3123 3121 3119 3120 3120 3118 3121 3122 3117 3118 3119 3117 3118 3119 3119 3116 3112 3111 3112 3112 3111 3109 3107 3107 3108 3110 3107
3063 3066 3069 3073 3076 3079 3081 3084 3088 3090 3094 3097 3099 3102 3104 3108 3109 3111 3112 3115 3115 3115 3111 3115 3114 3112 3114 3117 3111 3114 3114 3114 3112 3113 3114 3112 3106 3109 3108 3108 3108 3106 3105 3104 3102 3105 3104
3055 3058 3061 3065 3068 3072 3074 3077 3080 3082 3086 3089 3092 3094 3097 3100 3103 3105 3107 3110 3110 3109 3108 3104 3108 3105 3108 3110 3108 3109 3108 3108 3107 3108 3108 3105 3102 3105 3104 3103 3104 3104 3103 3102 3100 3097 3098
3046 3049 3053 3056 3059 3064 3066 3069 3072 3075 3078 3081 3085 3088 3091 3093 3098 3099 3101 3102 3104 3105 3104 3100 3099 3098 3102 3103 3104 3104 3104 3106 3103 3102 3103 3101 3099 3097 3097 3098 3102 3098 3101 3099 3097 3095 3093
3036 3041 3045 3048 3052 3055 3058 3061 3065 3067 3071 3074 3079 3082 3084 3086 3090 3093 3097 3099 3100 3103 3105 3101 3097 3098 3100 3102 3102 3101 3102 3101 3101 3100 3102 3095 3096 3095 3093 3094 3097 3096 3095 3094 3093 3092 3089
3028 3032 3035 3039 3044 3047 3051 3055 3058 3061 3065 3067 3072 3076 3079 3081 3084 3088 3091 3095 3098 3103 3096 3094 3094 3095 3097 3098 3097 3098 3098 3100 3101 3099 3096 3090 3091 3090 3088 3090 3092 3092 3091 3090 3089 3087 3082
3019 3022 3027 3031 3036 3040 3044 3047 3052 3055 3060 3062 3066 3070 3073 3076 3080 3083 3087 3091 3097 3094 3093 3092 3090 3091 3092 3093 3094 3094 3095 3098 3100 3097 3092 3089 3088 3087 3086 3082 3085 3087 3088 3087 3086 3083 3078
3010 3015 3019 3023 3028 3032 3036 3042 3046 3049 3053 3057 3061 3064 3068 3073 3075 3079 3084 3086 3086 3086 3088 3087 3085 3087 3089 3091 3089 3090 3092 3093 3094 3093 3091 3089 3081 3082 3082 3080 3080 3080 3084 3084 3083 3081 3075
3001 3006 3011 3015 3021 3025 3029 3034 3039 3043 3047 3051 3055 3060 3063 3068 3070 3075 3079 3079 3077 3080 3085 3084 3084 3084 3085 3087 3088 3087 3087 3089 3090 3090 3091 3087 3080 3080 3081 3078 3079 3079 3079 3078 3075 3074 3072
2992 2996 3002 3007 3012 3017 3023 3028 3032 3036 3041 3045 3050 3054 3060 3062 3065 3069 3072 3071 3072 3077 3079 3080 3081 3082 3080 3082 3085 3084 3084 3086 3086 3086 3085 3084 3078 3076 3075 3075 3078 3077 3077 3076 3074 3074 3070
2981 2986 2991 2997 3003 3009 3014 3019 3025 3029 3033 3039 3044 3047 3053 3057 3059 3063 3063 3063 3066 3071 3076 3079 3078 3079 3078 3080 3082 3081 3081 3082 3081 3081 3081 3081 3078 3073 3073 3073 3074 3073 3071 3071 3070 3068 3067
2969 2975 2982 2987 2993 2999 3006 3011 3017 3021 3026 3031 3036 3042 3046 3050 3056 3054 3055 3058 3063 3066 3069 3071 3072 3074 3073 3075 3076 3076 3077 3078 3079 3079 3077 3078 3074 3069 3067 3067 3069 3068 3067 3065 3065 3064 3062
2958 2964 2971 2976 2982 2990 2996 3003 3009 3014 3017 3023 3029 3035 3039 3043 3043 3046 3050 3053 3057 3061 3064 3065 3068 3069 3070 3070 3073 3070 3071 3073 3074 3076 3071 3072 3072 3069 3064 3065 3062 3063 3063 3062 3062 3061 3058
2946 2954 2960 2965 2970 2978 2986 2993 3000 3004 3010 3015 3022 3028 3031 3033 3036 3040 3044 3047 3051 3054 3057 3061 3062 3064 3065 3066 3067 3067 3067 3069 3067 3068 3068 3067 3066 3066 3065 3065 3065 3062 3062 3061 3061 3059 3054
2935 2942 2949 2954 2960 2967 2975 2982 2990 2996 3002 3009 3010 3015 3019 3020 3026 3033 3038 3041 3043 3047 3051 3055 3053 3055 3060 3059 3060 3061 3063 3064 3063 3064 3064 3064 3059 3061 3060 3059 3060 3059 3057 3057 3054 3054 3051
2922 2930 2937 2944 2951 2957 2964 2972 2980 2986 2994 3001 3001 3006 3011 3017 3020 3026 3030 3031 3036 3040 3045 3046 3047 3053 3054 3051 3053 3055 3059 3059 3059 3059 3060 3058 3054 3056 3052 3054 3054 3051 3050 3048 3046 3046 3046
2910 2917 2924 2932 2941 2947 2953 2960 2968 2976 2984 2989 2993 3000 3005 3011 3014 3017 3017 3023 3030 3037 3037 3040 3043 3045 3046 3046 3050 3052 3053 3054 3055 3055 3055 3053 3051 3051 3046 3049 3048 3045 3041 3039 3038 3039 3041
2896 2903 2912 2921 2929 2936 2943 2950 2957 2966 2972 2981 2985 2994 2999 3002 3005 3006 3013 3021 3025 3030 3031 3036 3037 3038 3043 3044 3046 3045 3046 3048 3048 3049 3049 3047 3048 3049 3045 3047 3044 3040 3037 3036 3034 3034 3034
2882 2889 2898 2907 2916 2924 2932 2940 2947 2957 2965 2971 2980 2986 2992 2995 3000 3005 3010 3014 3020 3025 3025 3027 3030 3035 3038 3039 3040 3039 3040 3041 3040 3039 3040 3041 3043 3043 3041 3038 3037 3035 3033 3033 3031 3031 3032
2870 2876 2884 2893 2903 2912 2921 2930 2938 2947 2956 2963 2972 2980 2986 2992 2989 3003 3006 3011 3015 3019 3022 3021 3023 3030 3033 3033 3033 3033 3035 3037 3036 3030 3029 3033 3036 3039 3035 3035 3035 3030 3028 3028 3029 3028 3029
2858 2865 2872 2881 2890 2901 2910 2919 2928 2937 2947 2954 2962 2973 2979 2982 2986 2994 2998 3004 3011 3014 3015 3017 3020 3024 3027 3026 3027 3029 3029 3032 3031 3027 3027 3028 3029 3031 3033 3033 3029 3027 3027 3027 3029 3028 3024
2847 2854 2861 2869 2878 2887 2897 2907 2917 2928 2938 2945 2954 2964 2972 2976 2979 2985 2993 2997 3003 3008 3011 3015 3019 3017 3021 3022 3024 3021 3023 3024 3025 3023 3023 3025 3025 3026 3029 3031 3026 3020 3022 3024 3023 3021 3020
2836 2843 2849 2857 2865 2875 2885 2896 2906 2917 2929 2938 2944 2955 2966 2973 2975 2980 2985 2991 2996 3003 3006 3008 3011 3013 3016 3016 3017 3019 3018 3018 3018 3019 3019 3018 3018 3020 3022 3019 3016 3017 3017 3019 3020 3019 3017